Date String (YYYY-MM-DD hh:mm:ss) UTC,Instrument flags,Ambient pressure (hPa),Sample flow (lpm),Bypass flow (lpm),Sample temperature (°C),Ambient temperature (°C),ASC tube jacket temperature (°C),LED temperature (°C),Box temperature (°C),Sample RH (%),Span deviation,Mass concentration (μg/m³),Mass concentration (μg/m³),Mass concentration (μg/m³)
DateTimeUTC,F1_M11,P_M11,Q1_M11,Q2_M11,T1_M11,T2_M11,T3_M11,T4_M11,T5_M11,U1_M11,ZSPAN_M11,X2_M11,X0_M11,X1_M11
2022-09-09 23:00:00,,0827.8,5.01,0.00,30.9,29.5,00.0,39.6,32.7,23.5,0001.2,0013.90,0024.01,0013.01
2022-09-09 23:01:00,,0827.8,5.00,0.00,30.9,29.5,00.0,39.6,32.7,23.5,0001.1,0013.88,0024.73,0012.99
2022-09-09 23:02:00,,0827.8,5.00,0.00,30.9,29.5,00.0,39.6,32.7,23.5,0001.2,0013.90,0024.58,0012.97
2022-09-09 23:03:00,,0827.9,5.00,0.00,30.9,29.5,00.0,39.7,32.7,23.4,0001.0,0013.89,0023.79,0012.97
2022-09-09 23:04:00,,0827.9,5.00,0.00,30.9,29.5,00.0,39.7,32.7,23.3,0001.0,0013.86,0023.19,0012.95
2022-09-09 23:05:00,,0827.9,4.99,0.00,30.9,29.5,00.0,39.7,32.7,23.3,0001.0,0013.87,0022.73,0012.95
2022-09-09 23:06:00,,0827.9,5.00,0.00,30.9,29.5,00.0,39.7,32.7,23.2,0001.3,0013.87,0021.98,0012.93
2022-09-09 23:07:00,,0827.8,4.99,0.00,30.9,29.5,00.0,39.7,32.7,23.2,0001.0,0013.89,0022.00,0012.94
2022-09-09 23:08:00,,0828.0,5.00,0.00,30.9,29.5,00.0,39.7,32.8,23.2,0000.8,0013.91,0021.35,0012.93
2022-09-09 23:09:00,,0827.9,5.02,0.00,31.0,29.6,00.0,39.7,32.8,23.2,0001.1,0013.91,0021.06,0012.93
2022-09-09 23:10:00,,0827.9,5.00,0.00,31.0,29.6,00.0,39.7,32.8,23.3,0001.2,0013.90,0020.43,0012.93
2022-09-09 23:11:00,,0827.8,5.00,0.00,31.0,29.6,00.0,39.7,32.8,23.2,0001.2,0013.92,0019.23,0012.94
2022-09-09 23:12:00,,0827.9,5.00,0.00,31.0,29.6,00.0,39.7,32.8,23.2,0001.2,0013.95,0018.77,0012.95
2022-09-09 23:13:00,,0827.9,5.00,0.00,31.0,29.6,00.0,39.7,32.8,23.2,0001.4,0013.98,0018.89,0012.98
2022-09-09 23:14:00,,0827.9,5.00,0.00,31.0,29.6,00.0,39.8,32.8,23.1,0001.4,0014.01,0019.87,0012.99
2022-09-09 23:15:00,,0827.9,5.00,0.00,31.0,29.6,00.0,39.8,32.8,23.1,0001.2,0014.08,0020.90,0013.01
2022-09-09 23:16:00,,0827.9,5.00,0.00,31.0,29.6,00.0,39.8,32.8,23.1,0001.2,0014.04,0020.92,0012.99
2022-09-09 23:17:00,,0828.0,5.00,0.00,31.0,29.7,00.0,39.8,32.8,23.1,0000.9,0014.09,0021.87,0013.00
2022-09-09 23:18:00,,0828.0,5.00,0.00,31.0,29.7,00.0,39.8,32.9,23.1,0000.8,0014.10,0021.57,0012.99
2022-09-09 23:19:00,,0828.0,5.00,0.00,31.1,29.7,00.0,39.8,32.9,23.0,0000.8,0014.14,0021.69,0012.98
2022-09-09 23:20:00,,0828.0,5.00,0.00,31.1,29.7,00.0,39.8,32.9,23.0,0000.8,0014.15,0021.87,0012.98
2022-09-09 23:21:00,,0827.9,5.00,0.00,31.1,29.7,00.0,39.8,32.9,23.0,0000.8,0014.13,0022.31,0012.98
2022-09-09 23:22:00,,0828.0,5.01,0.00,31.1,29.7,00.0,39.8,32.9,23.1,0001.0,0014.11,0022.74,0012.98
2022-09-09 23:23:00,,0828.0,5.00,0.00,31.1,29.7,00.0,39.8,32.9,23.0,0000.8,0014.10,0022.38,0012.99
2022-09-09 23:24:00,,0828.0,5.00,0.00,31.1,29.7,00.0,39.9,32.9,23.0,0000.5,0014.08,0022.44,0012.99
2022-09-09 23:25:00,,0828.1,5.00,0.00,31.1,29.7,00.0,39.9,32.9,23.1,0000.4,0014.08,0021.80,0012.99
2022-09-09 23:26:00,,0828.1,5.00,0.00,31.1,29.7,00.0,39.9,32.9,23.0,0000.6,0014.04,0021.19,0012.98
2022-09-09 23:27:00,,0828.1,5.00,0.00,31.1,29.7,00.0,39.9,32.9,23.0,0000.8,0014.08,0021.87,0013.01
2022-09-09 23:28:00,,0828.1,5.00,0.00,31.1,29.7,00.0,39.9,32.9,23.0,0001.4,0014.08,0022.45,0013.04
2022-09-09 23:29:00,,0828.1,5.00,0.00,31.1,28.8,00.0,39.9,32.9,22.9,0001.5,0014.14,0022.79,0013.08
2022-09-09 23:30:00,,0828.1,4.99,0.00,31.1,27.2,00.0,39.8,32.7,23.1,0001.5,0014.11,0023.03,0013.10
2022-09-09 23:31:00,,0828.1,5.00,0.00,31.0,26.5,00.0,39.7,32.6,23.2,0001.4,0014.08,0022.81,0013.12
2022-09-09 23:32:00,,0828.1,4.99,0.00,30.8,26.6,00.0,39.6,32.3,23.4,0001.5,0014.05,0022.22,0013.11
2022-09-09 23:33:00,,0828.1,5.00,0.00,30.7,27.0,00.0,39.6,32.1,23.6,0001.1,0014.06,0022.35,0013.11
2022-09-09 23:34:00,,0828.1,5.01,0.00,30.6,27.4,00.0,39.5,32.1,23.7,0001.2,0014.03,0022.90,0013.09
2022-09-09 23:35:00,,0828.1,4.99,0.00,30.6,27.7,00.0,39.5,32.1,23.8,0001.3,0013.99,0022.67,0013.06
2022-09-09 23:36:00,,0828.1,4.99,0.00,30.5,28.0,00.0,39.4,32.1,23.7,0001.6,0013.91,0022.36,0012.99
2022-09-09 23:37:00,,0828.1,5.01,0.00,30.5,28.2,00.0,39.4,32.1,23.6,0001.4,0013.87,0022.08,0012.95
2022-09-09 23:38:00,,0828.3,4.99,0.00,30.5,28.4,00.0,39.4,32.1,23.6,0001.3,0013.82,0022.47,0012.91
2022-09-09 23:39:00,,0828.2,5.00,0.00,30.5,28.5,00.0,39.4,32.2,23.6,0001.2,0013.81,0022.29,0012.87
2022-09-09 23:40:00,,0828.2,5.00,0.00,30.5,28.6,00.0,39.4,32.2,23.6,0001.3,0013.75,0022.40,0012.81
2022-09-09 23:41:00,,0828.2,5.01,0.00,30.5,28.7,00.0,39.3,32.2,23.6,0001.3,0013.74,0021.95,0012.78
2022-09-09 23:42:00,,0828.2,5.00,0.00,30.5,28.8,00.0,39.3,32.2,23.6,0001.2,0013.72,0021.99,0012.74
2022-09-09 23:43:00,,0828.2,5.00,0.00,30.5,28.9,00.0,39.3,32.2,23.6,0001.1,0013.71,0021.98,0012.72
2022-09-09 23:44:00,,0828.2,5.00,0.00,30.5,28.9,00.0,39.3,32.3,23.6,0001.1,0013.68,0021.56,0012.68
2022-09-09 23:45:00,,0828.2,5.01,0.00,30.5,29.0,00.0,39.3,32.3,23.6,0001.2,0013.72,0021.27,0012.67
2022-09-09 23:46:00,,0828.2,5.00,0.00,30.5,29.0,00.0,39.3,32.3,23.5,0001.4,0013.72,0021.64,0012.66
2022-09-09 23:47:00,,0828.2,4.99,0.00,30.5,29.1,00.0,39.3,32.3,23.5,0001.4,0013.71,0021.92,0012.66
2022-09-09 23:48:00,,0828.3,5.01,0.00,30.5,29.1,00.0,39.3,32.3,23.5,0001.5,0013.69,0022.13,0012.65
2022-09-09 23:49:00,,0828.2,5.00,0.00,30.5,29.1,00.0,39.3,32.3,23.5,0001.3,0013.67,0021.70,0012.64
2022-09-09 23:50:00,,0828.2,5.01,0.00,30.6,29.1,00.0,39.3,32.4,23.5,0001.1,0013.62,0020.70,0012.63
2022-09-09 23:51:00,,0828.3,4.99,0.00,30.6,29.1,00.0,39.3,32.4,23.6,0000.7,0013.56,0020.33,0012.60
2022-09-09 23:52:00,,0828.3,5.00,0.00,30.6,29.2,00.0,39.3,32.4,23.6,0000.9,0013.53,0020.24,0012.57
2022-09-09 23:53:00,,0828.4,5.00,0.00,30.6,29.2,00.0,39.4,32.4,23.7,0001.2,0013.51,0020.97,0012.55
2022-09-09 23:54:00,,0828.4,4.99,0.00,30.6,29.2,00.0,39.4,32.4,23.7,0001.5,0013.50,0021.57,0012.53
2022-09-09 23:55:00,,0828.5,5.00,0.00,30.6,29.2,00.0,39.4,32.4,23.9,0001.6,0013.52,0022.17,0012.52
2022-09-09 23:56:00,,0828.5,5.00,0.00,30.6,29.3,00.0,39.4,32.5,23.8,0001.8,0013.50,0022.94,0012.50
2022-09-09 23:57:00,,0828.5,4.99,0.00,30.7,29.3,00.0,39.4,32.5,23.9,0001.4,0013.46,0022.23,0012.49
2022-09-09 23:58:00,,0828.5,5.00,0.00,30.7,29.3,00.0,39.4,32.5,23.9,0001.2,0013.52,0021.88,0012.51
2022-09-09 23:59:00,,0828.5,5.00,0.00,30.7,29.3,00.0,39.4,32.5,23.9,0001.0,0013.55,0021.77,0012.53
